Orbital Elements at Epoch 2459000.5 (2020-May-31.0) TDB
Reference: JPL 28 (heliocentric ecliptic J2000)
Element | Value | Uncertainty (1-sigma) | Units |
e | .2602385965319616 | 5.2386e-08 | |
a | 2.38178256717728 | 9.5862e-09 | au |
q | 1.761950814650772 | 1.2353e-07 | au |
i | 6.319045238886543 | 5.2633e-06 | deg |
node | 30.916667447045 | 2.9742e-05 | deg |
peri | 326.2259065627564 | 3.0925e-05 | deg |
M | 113.113512743049 | 9.952e-06 | deg |
tp | 2458578.644627812491 (2019-Apr-05.14462781) | 3.607e-05 | TDB |
period | 1342.615310095527 3.68 | 8.1057e-06 2.219e-08 | d yr |
n | .2681333940504417 | 1.6188e-09 | deg/d |
Q | 3.001614319703788 | 1.2081e-08 | au |
|
| | Orbit Determination Parameters
Additional Information
|